Location: Warwick
(41.7000°N, 71.4170°W)
Time: 22:29:03
(UTC-04:00)

BREEZE-M DEB (TANK) - Visible Passes

Search period start: 24 September 2017 00:00
Search period end: 04 October 2017 00:00
Orbit: 304 x 15842 km, 49.5° (Epoch: 24 September)

Date Brightness Start Highest point End Pass type
(mag) Time Alt. Az. Time Alt. Az. Time Alt. Az.
24 Sep 6.0 19:58:10 10° WNW 21:27:27 64° WSW 21:35:54 34° S visible
25 Sep 6.0 20:01:07 10° WNW 21:28:11 62° WSW 21:36:50 32° S visible
26 Sep 6.1 20:04:00 10° WNW 21:28:54 59° WSW 21:37:47 31° S visible
27 Sep 6.1 20:06:47 10° WNW 21:29:34 57° WSW 21:38:44 29° S visible
28 Sep 6.2 20:09:31 10° NW 21:30:12 55° WSW 21:39:41 27° S visible
29 Sep 6.3 20:12:10 10° NW 21:30:49 52° WSW 21:40:39 25° S visible
30 Sep 6.3 20:14:46 10° NW 21:31:22 50° WSW 21:41:38 23° S visible
01 Oct 6.4 20:17:18 10° NW 21:31:53 48° WSW 21:42:36 21° S visible
02 Oct 6.5 20:19:47 10° NW 21:32:22 46° WSW 21:43:35 18° S visible
03 Oct 6.5 20:22:13 10° NW 21:32:48 44° WSW 21:44:35 16° SSW visible
